When you browse on this site, cookies collect data to enhance your experience and personalize the content and advertising you see.
Visit our Privacy Policy to learn more. By continuing to use the site, you agree to this use of cookies and data.
  • In Lithuania
  • List of Countries
  • For 7 days
  • Water Temperature
  • Satellite Maps
  • Weather Map
  • Weather Widgets
  • user-avatar
    Login

    Hourly Weather Bobry

    Today, 20 June, Thursday

    Time Temperature Precipitation Wind Pressure Humidity
    00:00 +19°C° 0 mm 2 mps 747 mmHg 92%
    01:00 +19°C° 0 mm 3 mps 747 mmHg 93%
    02:00 +19°C° 0 mm 3 mps 747 mmHg 94%
    03:00 +19°C° 0 mm 3 mps 747 mmHg 94%
    04:00 +19°C° 0 mm 3 mps 747 mmHg 94%
    05:00 +19°C° 0 mm 3 mps 746 mmHg 95%
    06:00 +20°C° 0 mm 3 mps 746 mmHg 90%
    07:00 +22°C° 0 mm 3 mps 747 mmHg 86%
    08:00 +24°C° 0 mm 3 mps 747 mmHg 82%
    09:00 +26°C° 0.3 mm 3 mps 746 mmHg 75%
    10:00 +28°C° 0.3 mm 3 mps 746 mmHg 68%
    11:00 +29°C° 0.3 mm 3 mps 746 mmHg 61%
    12:00 +30°C° 0.2 mm 3 mps 746 mmHg 59%
    13:00 +30°C° 0.2 mm 3 mps 746 mmHg 56%
    14:00 +31°C° 0.2 mm 3 mps 746 mmHg 54%
    15:00 +31°C° 0.8 mm 3 mps 746 mmHg 57%
    16:00 +30°C° 0.8 mm 3 mps 746 mmHg 61%
    17:00 +30°C° 0.8 mm 3 mps 746 mmHg 64%
    18:00 +28°C° 0.4 mm 2 mps 746 mmHg 70%
    19:00 +27°C° 0.4 mm 2 mps 746 mmHg 76%
    20:00 +25°C° 0.4 mm 1 mps 746 mmHg 82%
    21:00 +25°C° 1.7 mm 1 mps 746 mmHg 84%
    22:00 +24°C° 1.7 mm 1 mps 746 mmHg 86%
    23:00 +23°C° 1.7 mm 2 mps 746 mmHg 89%

    Tomorrow, 21 June, Friday

    Time Temperature Precipitation Wind Pressure Humidity
    00:00 +21°C° 0.7 mm 2 mps 746 mmHg 90%
    01:00 +21°C° 0.7 mm 2 mps 746 mmHg 90%
    02:00 +20°C° 0.7 mm 2 mps 746 mmHg 91%
    03:00 +20°C° 0.4 mm 2 mps 746 mmHg 91%
    04:00 +20°C° 0.4 mm 2 mps 746 mmHg 91%
    05:00 +20°C° 0.4 mm 2 mps 746 mmHg 92%
    06:00 +21°C° 0 mm 2 mps 747 mmHg 88%
    07:00 +23°C° 0 mm 2 mps 747 mmHg 85%
    08:00 +25°C° 0 mm 2 mps 747 mmHg 81%
    09:00 +26°C° 0.2 mm 2 mps 747 mmHg 75%
    10:00 +28°C° 0.2 mm 3 mps 747 mmHg 69%
    11:00 +29°C° 0.2 mm 3 mps 747 mmHg 62%
    12:00 +30°C° 0.4 mm 3 mps 747 mmHg 60%
    13:00 +30°C° 0.4 mm 3 mps 747 mmHg 58%
    14:00 +31°C° 0.4 mm 3 mps 747 mmHg 56%
    15:00 +30°C° 1.2 mm 3 mps 747 mmHg 62%
    16:00 +29°C° 1.2 mm 3 mps 747 mmHg 68%
    17:00 +28°C° 1.2 mm 3 mps 747 mmHg 73%
    18:00 +26°C° 0.4 mm 3 mps 747 mmHg 78%
    19:00 +25°C° 0.4 mm 2 mps 747 mmHg 82%
    20:00 +24°C° 0.4 mm 2 mps 747 mmHg 87%
    21:00 +23°C° 0.1 mm 2 mps 748 mmHg 89%
    22:00 +23°C° 0.1 mm 2 mps 748 mmHg 91%
    23:00 +21°C° 0.1 mm 2 mps 748 mmHg 93%

    Day after tomorrow, 22 June, Saturday

    Time Temperature Precipitation Wind Pressure Humidity
    00:00 +20°C° 0 mm 2 mps 748 mmHg 94%
    01:00 +20°C° 0 mm 2 mps 749 mmHg 94%
    02:00 +19°C° 0 mm 3 mps 749 mmHg 95%
    03:00 +19°C° 0 mm 3 mps 749 mmHg 95%
    04:00 +19°C° 0 mm 4 mps 749 mmHg 94%
    05:00 +18°C° 0 mm 4 mps 749 mmHg 94%
    06:00 +18°C° 0 mm 4 mps 750 mmHg 91%
    07:00 +19°C° 0 mm 4 mps 750 mmHg 88%
    08:00 +19°C° 0 mm 4 mps 751 mmHg 86%
    09:00 +20°C° 0 mm 4 mps 751 mmHg 79%
    10:00 +22°C° 0 mm 5 mps 751 mmHg 73%
    11:00 +23°C° 0 mm 5 mps 751 mmHg 66%
    12:00 +25°C° 0 mm 5 mps 751 mmHg 64%
    13:00 +25°C° 0 mm 5 mps 751 mmHg 61%
    14:00 +26°C° 0 mm 5 mps 751 mmHg 59%
    15:00 +26°C° 0 mm 5 mps 751 mmHg 60%
    16:00 +26°C° 0 mm 5 mps 751 mmHg 62%
    17:00 +25°C° 0 mm 5 mps 751 mmHg 63%
    18:00 +23°C° 0 mm 4 mps 751 mmHg 67%
    19:00 +22°C° 0 mm 4 mps 751 mmHg 72%
    20:00 +21°C° 0 mm 4 mps 751 mmHg 76%
    21:00 +20°C° 0 mm 4 mps 751 mmHg 75%
    22:00 +20°C° 0 mm 4 mps 751 mmHg 74%
    23:00 +19°C° 0 mm 4 mps 751 mmHg 74%

    23 June, Sunday

    Time Temperature Precipitation Wind Pressure Humidity
    00:00 +19°C° 0 mm 4 mps 751 mmHg 74%
    01:00 +17°C° 0 mm 5 mps 751 mmHg 75%
    02:00 +17°C° 0 mm 5 mps 751 mmHg 76%
    03:00 +17°C° 0.1 mm 5 mps 751 mmHg 77%
    04:00 +16°C° 0.1 mm 5 mps 751 mmHg 78%
    05:00 +16°C° 0.1 mm 5 mps 751 mmHg 79%
    06:00 +17°C° 0.1 mm 4 mps 751 mmHg 80%
    07:00 +17°C° 0.1 mm 4 mps 751 mmHg 82%
    08:00 +17°C° 0.1 mm 4 mps 751 mmHg 83%
    09:00 +17°C° 0.5 mm 4 mps 751 mmHg 85%
    10:00 +17°C° 0.5 mm 3 mps 751 mmHg 86%
    11:00 +18°C° 0.5 mm 3 mps 752 mmHg 88%
    12:00 +18°C° 0.9 mm 4 mps 752 mmHg 89%
    13:00 +18°C° 0.9 mm 4 mps 752 mmHg 90%
    14:00 +18°C° 0.9 mm 4 mps 752 mmHg 92%
    15:00 +18°C° 0.9 mm 4 mps 752 mmHg 92%
    16:00 +18°C° 0.9 mm 4 mps 752 mmHg 93%
    17:00 +18°C° 0.9 mm 4 mps 752 mmHg 94%
    18:00 +18°C° 0.1 mm 4 mps 752 mmHg 93%
    19:00 +18°C° 0.1 mm 4 mps 752 mmHg 93%
    20:00 +18°C° 0.1 mm 4 mps 752 mmHg 93%
    21:00 +18°C° 0.3 mm 4 mps 752 mmHg 93%
    22:00 +18°C° 0.3 mm 4 mps 753 mmHg 93%
    23:00 +18°C° 0.3 mm 4 mps 753 mmHg 93%

    24 June, Monday

    Time Temperature Precipitation Wind Pressure Humidity
    00:00 +18°C° 0.4 mm 4 mps 753 mmHg 92%
    01:00 +17°C° 0.4 mm 4 mps 753 mmHg 91%
    02:00 +17°C° 0.4 mm 4 mps 753 mmHg 90%
    03:00 +17°C° 0.1 mm 4 mps 753 mmHg 89%
    04:00 +15°C° 0.1 mm 4 mps 753 mmHg 88%
    05:00 +15°C° 0.1 mm 4 mps 753 mmHg 87%
    06:00 +15°C° 0 mm 4 mps 754 mmHg 85%
    07:00 +17°C° 0 mm 4 mps 754 mmHg 83%
    08:00 +17°C° 0 mm 4 mps 754 mmHg 80%
    09:00 +18°C° 0 mm 4 mps 754 mmHg 78%
    10:00 +19°C° 0 mm 4 mps 754 mmHg 76%
    11:00 +21°C° 0 mm 4 mps 755 mmHg 74%
    12:00 +22°C° 0 mm 4 mps 755 mmHg 70%
    13:00 +23°C° 0 mm 4 mps 755 mmHg 67%
    14:00 +25°C° 0 mm 4 mps 755 mmHg 63%
    15:00 +25°C° 0 mm 4 mps 755 mmHg 62%
    16:00 +25°C° 0 mm 4 mps 755 mmHg 61%
    17:00 +25°C° 0 mm 4 mps 755 mmHg 60%
    18:00 +23°C° 0 mm 4 mps 755 mmHg 66%
    19:00 +22°C° 0 mm 4 mps 755 mmHg 71%
    20:00 +20°C° 0 mm 3 mps 755 mmHg 76%
    21:00 +19°C° 0 mm 3 mps 755 mmHg 78%
    22:00 +18°C° 0 mm 3 mps 756 mmHg 79%
    23:00 +16°C° 0 mm 3 mps 756 mmHg 80%

    25 June, Tuesday

    Time Temperature Precipitation Wind Pressure Humidity
    00:00 +16°C° 0 mm 3 mps 756 mmHg 81%
    01:00 +14°C° 0 mm 3 mps 756 mmHg 82%
    02:00 +13°C° 0 mm 3 mps 756 mmHg 83%
    03:00 +13°C° 0 mm 3 mps 756 mmHg 85%
    04:00 +13°C° 0 mm 3 mps 756 mmHg 86%
    05:00 +13°C° 0 mm 3 mps 756 mmHg 88%
    06:00 +16°C° 0 mm 3 mps 756 mmHg 83%
    07:00 +17°C° 0 mm 3 mps 756 mmHg 77%
    08:00 +19°C° 0 mm 3 mps 757 mmHg 72%
    09:00 +21°C° 0 mm 3 mps 757 mmHg 66%
    10:00 +22°C° 0 mm 3 mps 757 mmHg 59%
    11:00 +24°C° 0 mm 3 mps 757 mmHg 53%
    12:00 +25°C° 0 mm 3 mps 757 mmHg 50%
    13:00 +25°C° 0 mm 3 mps 757 mmHg 48%
    14:00 +26°C° 0 mm 2 mps 756 mmHg 45%
    15:00 +26°C° 0 mm 3 mps 756 mmHg 48%
    16:00 +25°C° 0 mm 3 mps 756 mmHg 50%
    17:00 +25°C° 0 mm 4 mps 756 mmHg 53%
    18:00 +24°C° 0 mm 3 mps 756 mmHg 59%
    19:00 +21°C° 0 mm 3 mps 756 mmHg 65%
    20:00 +20°C° 0 mm 2 mps 756 mmHg 71%
    21:00 +19°C° 0 mm 2 mps 756 mmHg 74%
    22:00 +18°C° 0 mm 2 mps 756 mmHg 76%
    23:00 +17°C° 0 mm 3 mps 757 mmHg 78%
    Show more